QPF
0.01 0.03 0.09 0.11 0.10 0.11 0.07 0.02 0.01 0.01 0.01 0.00 0.00 0.01 0.01 0.01 0.01 0.03 0.02 0.02 0.01 0.02 0.02 0.03 0.02 0.03 0.05 0.07 0.04 0.04 0.03 0.03 0.02 0.02 0.03 0.04 0.03 0.03 0.04 0.04 0.02 0.03 0.04 0.05 0.05 0.03 0.03 0.04 0.04
0.02 0.07 0.10 0.14 0.13 0.08 0.04 0.02 0.01 0.00 0.00 0.00 0.00 0.00 0.00 0.01 0.01 0.02 0.02 0.02 0.01 0.01 0.02 0.03 0.03 0.03 0.03 0.05 0.06 0.04 0.04 0.03 0.03 0.03 0.03 0.04 0.04 0.03 0.05 0.05 0.03 0.03 0.03 0.04 0.04 0.03 0.03 0.03 0.03
0.05 0.07 0.11 0.17 0.11 0.05 0.04 0.02 0.01 0.00 0.00 0.00 0.00 0.00 0.00 0.01 0.02 0.02 0.02 0.01 0.00 0.01 0.01 0.03 0.03 0.03 0.03 0.07 0.10 0.07 0.05 0.03 0.02 0.02 0.03 0.04 0.04 0.03 0.03 0.04 0.04 0.03 0.04 0.04 0.04 0.05 0.05 0.03 0.02
0.06 0.09 0.12 0.14 0.06 0.03 0.01 0.01 0.00 0.00 0.00 0.00 0.00 0.01 0.01 0.02 0.01 0.01 0.01 0.00 0.00 0.01 0.02 0.03 0.03 0.05 0.06 0.12 0.15 0.09 0.06 0.03 0.02 0.02 0.02 0.03 0.03 0.03 0.04 0.04 0.04 0.05 0.04 0.04 0.04 0.04 0.04 0.03 0.02
0.08 0.13 0.15 0.10 0.03 0.02 0.01 0.00 0.00 0.00 0.00 0.00 0.00 0.01 0.01 0.02 0.01 0.01 0.01 0.00 0.00 0.01 0.01 0.01 0.02 0.09 0.14 0.18 0.14 0.08 0.06 0.05 0.04 0.04 0.05 0.04 0.04 0.04 0.04 0.05 0.05 0.05 0.05 0.04 0.04 0.03 0.03 0.01 0.02
0.14 0.15 0.10 0.05 0.02 0.01 0.01 0.00 0.00 0.00 0.00 0.01 0.00 0.01 0.02 0.02 0.01 0.01 0.01 0.01 0.01 0.01 0.01 0.01 0.03 0.09 0.17 0.16 0.10 0.07 0.07 0.07 0.07 0.08 0.09 0.06 0.05 0.04 0.04 0.05 0.05 0.05 0.04 0.04 0.04 0.03 0.02 0.01 0.03
0.11 0.09 0.07 0.03 0.02 0.01 0.01 0.01 0.00 0.00 0.00 0.00 0.01 0.01 0.01 0.02 0.00 0.00 0.01 0.01 0.01 0.01 0.00 0.01 0.03 0.07 0.10 0.11 0.11 0.08 0.08 0.11 0.15 0.12 0.12 0.10 0.06 0.06 0.06 0.06 0.06 0.04 0.04 0.04 0.03 0.03 0.03 0.02 0.04
0.09 0.06 0.05 0.02 0.03 0.02 0.01 0.01 0.00 0.00 0.01 0.01 0.01 0.01 0.00 0.00 0.00 0.01 0.01 0.01 0.02 0.02 0.01 0.01 0.03 0.03 0.04 0.06 0.07 0.07 0.10 0.24 0.30 0.16 0.10 0.08 0.07 0.08 0.07 0.06 0.05 0.05 0.05 0.04 0.03 0.03 0.02 0.03 0.03
0.04 0.05 0.02 0.01 0.02 0.03 0.02 0.01 0.00 0.00 0.01 0.01 0.01 0.01 0.00 0.00 0.00 0.00 0.01 0.02 0.02 0.02 0.02 0.01 0.01 0.01 0.01 0.01 0.02 0.05 0.16 0.31 0.24 0.14 0.09 0.07 0.05 0.07 0.08 0.07 0.07 0.06 0.05 0.05 0.04 0.02 0.03 0.04 0.03
0.04 0.05 0.02 0.01 0.02 0.02 0.02 0.01 0.00 0.00 0.01 0.01 0.01 0.01 0.00 0.00 0.00 0.00 0.01 0.01 0.02 0.02 0.02 0.01 0.01 0.00 0.01 0.00 0.01 0.06 0.10 0.23 0.19 0.12 0.07 0.05 0.04 0.05 0.06 0.06 0.07 0.06 0.08 0.07 0.06 0.05 0.03 0.03 0.03
0.05 0.02 0.01 0.01 0.01 0.01 0.00 0.00 0.00 0.00 0.00 0.01 0.02 0.01 0.00 0.00 0.00 0.00 0.01 0.01 0.01 0.02 0.02 0.01 0.00 0.00 0.00 0.00 0.01 0.06 0.15 0.22 0.16 0.10 0.05 0.04 0.04 0.06 0.05 0.05 0.07 0.08 0.08 0.06 0.06 0.05 0.03 0.04 0.05
0.05 0.01 0.02 0.01 0.01 0.01 0.00 0.00 0.00 0.00 0.00 0.01 0.02 0.01 0.00 0.00 0.00 0.00 0.00 0.01 0.01 0.01 0.02 0.01 0.00 0.01 0.01 0.00 0.00 0.01 0.04 0.08 0.09 0.07 0.06 0.05 0.05 0.06 0.05 0.05 0.06 0.07 0.06 0.04 0.04 0.03 0.02 0.03 0.03
0.02 0.01 0.01 0.01 0.01 0.01 0.00 0.00 0.00 0.00 0.00 0.01 0.01 0.00 0.00 0.00 0.00 0.00 0.00 0.01 0.01 0.01 0.03 0.01 0.01 0.01 0.01 0.01 0.01 0.01 0.01 0.02 0.03 0.02 0.04 0.06 0.05 0.04 0.05 0.04 0.04 0.04 0.04 0.04 0.03 0.02 0.02 0.02 0.02
0.01 0.00 0.01 0.02 0.01 0.01 0.00 0.00 0.00 0.00 0.00 0.00 0.01 0.01 0.00 0.00 0.00 0.00 0.01 0.01 0.01 0.02 0.03 0.02 0.02 0.01 0.02 0.02 0.01 0.01 0.01 0.01 0.01 0.01 0.02 0.03 0.03 0.03 0.05 0.04 0.04 0.03 0.02 0.03 0.03 0.03 0.03 0.03 0.03
0.00 0.00 0.01 0.02 0.01 0.01 0.01 0.01 0.01 0.00 0.00 0.00 0.01 0.01 0.01 0.01 0.01 0.02 0.02 0.02 0.03 0.03 0.04 0.04 0.03 0.02 0.01 0.01 0.01 0.01 0.01 0.02 0.01 0.02 0.03 0.03 0.03 0.03 0.03 0.03 0.03 0.02 0.03 0.05 0.05 0.06 0.05 0.03 0.02
0.00 0.01 0.01 0.01 0.01 0.01 0.01 0.03 0.01 0.01 0.01 0.01 0.02 0.01 0.01 0.01 0.01 0.02 0.03 0.03 0.04 0.05 0.06 0.05 0.03 0.02 0.01 0.00 0.01 0.01 0.01 0.02 0.02 0.02 0.03 0.03 0.02 0.02 0.03 0.03 0.03 0.04 0.05 0.06 0.06 0.09 0.05 0.04 0.03
0.01 0.01 0.01 0.01 0.01 0.00 0.01 0.01 0.00 0.01 0.01 0.01 0.01 0.01 0.01 0.01 0.01 0.02 0.03 0.03 0.03 0.03 0.03 0.03 0.03 0.02 0.02 0.02 0.01 0.01 0.02 0.02 0.01 0.01 0.02 0.02 0.02 0.03 0.04 0.04 0.05 0.13 0.11 0.06 0.06 0.07 0.06 0.06 0.07
0.01 0.01 0.00 0.01 0.01 0.00 0.01 0.01 0.01 0.01 0.03 0.04 0.02 0.01 0.01 0.02 0.02 0.02 0.03 0.03 0.02 0.02 0.02 0.03 0.03 0.03 0.03 0.03 0.02 0.02 0.03 0.02 0.01 0.01 0.01 0.01 0.02 0.03 0.04 0.04 0.06 0.08 0.08 0.08 0.07 0.05 0.05 0.05 0.04
0.00 0.01 0.01 0.00 0.00 0.00 0.01 0.01 0.01 0.02 0.10 0.06 0.06 0.03 0.01 0.01 0.02 0.02 0.01 0.01 0.01 0.01 0.01 0.02 0.02 0.03 0.03 0.03 0.03 0.03 0.02 0.01 0.01 0.01 0.01 0.02 0.02 0.03 0.04 0.04 0.05 0.05 0.06 0.06 0.06 0.06 0.05 0.04 0.06
0.00 0.01 0.01 0.01 0.01 0.01 0.01 0.01 0.01 0.01 0.03 0.04 0.11 0.02 0.01 0.01 0.01 0.01 0.00 0.00 0.00 0.00 0.01 0.02 0.02 0.03 0.03 0.03 0.03 0.03 0.02 0.02 0.01 0.01 0.01 0.02 0.02 0.02 0.03 0.04 0.04 0.05 0.06 0.07 0.08 0.08 0.06 0.06 0.07
0.00 0.01 0.01 0.01 0.01 0.01 0.03 0.01 0.01 0.05 0.03 0.03 0.04 0.01 0.01 0.01 0.01 0.00 0.00 0.00 0.00 0.00 0.01 0.01 0.01 0.02 0.02 0.03 0.03 0.03 0.02 0.02 0.02 0.02 0.02 0.02 0.02 0.02 0.04 0.03 0.03 0.04 0.04 0.04 0.04 0.05 0.03 0.04 0.05
0.00 0.00 0.01 0.02 0.01 0.02 0.02 0.02 0.03 0.05 0.05 0.05 0.06 0.02 0.01 0.01 0.00 0.00 0.01 0.00 0.00 0.00 0.01 0.00 0.00 0.00 0.02 0.02 0.03 0.04 0.05 0.03 0.03 0.03 0.04 0.03 0.02 0.02 0.04 0.04 0.04 0.05 0.04 0.04 0.04 0.04 0.03 0.03 0.03
0.00 0.00 0.01 0.02 0.03 0.02 0.02 0.03 0.08 0.08 0.05 0.04 0.05 0.03 0.02 0.01 0.01 0.00 0.00 0.00 0.00 0.00 0.00 0.00 0.00 0.00 0.01 0.02 0.02 0.04 0.05 0.04 0.03 0.03 0.04 0.03 0.03 0.02 0.03 0.05 0.05 0.06 0.06 0.05 0.04 0.03 0.03 0.02 0.02
0.00 0.00 0.01 0.02 0.04 0.03 0.03 0.04 0.07 0.05 0.05 0.06 0.07 0.05 0.03 0.02 0.02 0.01 0.00 0.00 0.00 0.00 0.00 0.00 0.00 0.00 0.01 0.01 0.02 0.03 0.02 0.02 0.01 0.02 0.03 0.04 0.03 0.03 0.03 0.06 0.07 0.08 0.09 0.07 0.05 0.03 0.02 0.02 0.03
0.00 0.01 0.01 0.01 0.02 0.03 0.05 0.04 0.03 0.04 0.04 0.05 0.06 0.07 0.07 0.06 0.04 0.02 0.01 0.01 0.01 0.00 0.00 0.00 0.00 0.01 0.01 0.02 0.02 0.02 0.01 0.01 0.01 0.02 0.05 0.04 0.03 0.03 0.04 0.06 0.08 0.10 0.10 0.07 0.06 0.04 0.03 0.03 0.03
0.00 0.01 0.03 0.02 0.02 0.02 0.04 0.04 0.03 0.03 0.04 0.03 0.03 0.04 0.06 0.10 0.05 0.03 0.02 0.02 0.02 0.01 0.01 0.01 0.01 0.01 0.02 0.02 0.01 0.01 0.01 0.01 0.01 0.01 0.04 0.04 0.03 0.02 0.03 0.04 0.06 0.08 0.08 0.06 0.05 0.04 0.03 0.03 0.04
0.00 0.00 0.01 0.02 0.01 0.03 0.06 0.04 0.05 0.04 0.04 0.04 0.03 0.03 0.07 0.08 0.04 0.03 0.03 0.03 0.02 0.02 0.02 0.02 0.03 0.02 0.02 0.02 0.01 0.01 0.00 0.00 0.00 0.00 0.01 0.02 0.02 0.02 0.02 0.02 0.03 0.06 0.07 0.06 0.04 0.04 0.04 0.04 0.05
0.00 0.00 0.01 0.01 0.01 0.02 0.03 0.04 0.07 0.07 0.06 0.04 0.03 0.03 0.06 0.05 0.03 0.03 0.03 0.02 0.02 0.02 0.04 0.03 0.03 0.05 0.04 0.03 0.01 0.01 0.00 0.00 0.00 0.00 0.00 0.01 0.01 0.01 0.01 0.02 0.03 0.04 0.06 0.05 0.05 0.05 0.05 0.05 0.07
0.00 0.00 0.00 0.01 0.01 0.01 0.02 0.03 0.03 0.03 0.03 0.04 0.05 0.04 0.04 0.04 0.05 0.10 0.04 0.02 0.04 0.04 0.05 0.06 0.07 0.07 0.04 0.02 0.02 0.01 0.01 0.01 0.00 0.00 0.00 0.01 0.01 0.01 0.01 0.01 0.02 0.03 0.06 0.06 0.06 0.06 0.07 0.06 0.06
0.00 0.00 0.00 0.00 0.00 0.00 0.01 0.02 0.03 0.04 0.04 0.05 0.07 0.07 0.06 0.10 0.10 0.05 0.04 0.06 0.08 0.04 0.03 0.04 0.07 0.07 0.04 0.02 0.02 0.01 0.01 0.01 0.01 0.01 0.00 0.01 0.01 0.01 0.01 0.01 0.01 0.03 0.03 0.04 0.04 0.04 0.05 0.05 0.04
MSLP
1011.29 1012.09 1012.82 1013.35 1013.58 1013.47 1013.06 1012.43 1011.71 1011.09 1010.69 1010.61 1010.85 1011.35 1012.01 1012.67 1013.18 1013.45 1013.44 1013.17 1012.72 1012.21 1011.76 1011.44 1011.31 1011.34 1011.49 1011.68 1011.85 1011.94 1011.94 1011.87 1011.76 1011.67 1011.65 1011.69 1011.80 1011.95 1012.10 1012.20 1012.23 1012.17 1012.04 1011.86 1011.65 1011.46 1011.29 1011.15 1011.07
1011.36 1012.19 1012.88 1013.31 1013.41 1013.18 1012.65 1011.95 1011.22 1010.61 1010.25 1010.20 1010.46 1010.96 1011.58 1012.18 1012.64 1012.87 1012.86 1012.65 1012.30 1011.92 1011.61 1011.43 1011.41 1011.52 1011.72 1011.92 1012.09 1012.17 1012.18 1012.11 1012.03 1011.96 1011.94 1011.97 1012.05 1012.16 1012.26 1012.32 1012.33 1012.28 1012.20 1012.10 1011.99 1011.91 1011.84 1011.80 1011.78
1011.59 1012.41 1013.01 1013.32 1013.27 1012.90 1012.27 1011.52 1010.78 1010.21 1009.90 1009.89 1010.16 1010.63 1011.19 1011.72 1012.11 1012.30 1012.29 1012.13 1011.88 1011.64 1011.48 1011.44 1011.53 1011.71 1011.94 1012.16 1012.32 1012.40 1012.40 1012.35 1012.28 1012.22 1012.20 1012.22 1012.27 1012.32 1012.37 1012.39 1012.38 1012.35 1012.31 1012.28 1012.27 1012.28 1012.31 1012.35 1012.39
1011.94 1012.69 1013.18 1013.33 1013.12 1012.62 1011.92 1011.14 1010.43 1009.92 1009.67 1009.71 1009.99 1010.43 1010.92 1011.36 1011.68 1011.82 1011.81 1011.70 1011.56 1011.45 1011.43 1011.51 1011.69 1011.93 1012.18 1012.39 1012.53 1012.59 1012.59 1012.54 1012.49 1012.44 1012.43 1012.44 1012.46 1012.47 1012.47 1012.46 1012.43 1012.41 1012.40 1012.43 1012.50 1012.59 1012.69 1012.79 1012.88
1012.30 1012.94 1013.26 1013.24 1012.89 1012.28 1011.53 1010.77 1010.13 1009.71 1009.56 1009.66 1009.97 1010.38 1010.81 1011.17 1011.40 1011.51 1011.50 1011.45 1011.39 1011.39 1011.49 1011.66 1011.90 1012.17 1012.41 1012.59 1012.70 1012.73 1012.72 1012.68 1012.64 1012.62 1012.62 1012.63 1012.64 1012.63 1012.59 1012.55 1012.51 1012.49 1012.51 1012.58 1012.69 1012.83 1012.98 1013.11 1013.22
1012.53 1013.01 1013.15 1012.96 1012.47 1011.79 1011.05 1010.36 1009.84 1009.56 1009.53 1009.72 1010.06 1010.46 1010.84 1011.13 1011.31 1011.38 1011.38 1011.37 1011.40 1011.49 1011.66 1011.90 1012.16 1012.41 1012.61 1012.75 1012.80 1012.81 1012.78 1012.75 1012.74 1012.75 1012.78 1012.80 1012.81 1012.79 1012.74 1012.67 1012.62 1012.60 1012.63 1012.72 1012.86 1013.02 1013.18 1013.32 1013.42
1012.51 1012.80 1012.74 1012.39 1011.81 1011.11 1010.42 1009.86 1009.50 1009.40 1009.52 1009.83 1010.22 1010.63 1010.98 1011.22 1011.35 1011.41 1011.42 1011.45 1011.54 1011.70 1011.92 1012.18 1012.43 1012.64 1012.78 1012.84 1012.84 1012.80 1012.76 1012.75 1012.77 1012.82 1012.89 1012.95 1012.97 1012.95 1012.89 1012.82 1012.75 1012.72 1012.75 1012.83 1012.97 1013.14 1013.29 1013.42 1013.50
1012.18 1012.25 1012.02 1011.53 1010.89 1010.22 1009.65 1009.25 1009.10 1009.20 1009.49 1009.92 1010.39 1010.81 1011.14 1011.35 1011.46 1011.50 1011.54 1011.60 1011.74 1011.94 1012.19 1012.45 1012.67 1012.82 1012.88 1012.87 1012.81 1012.73 1012.68 1012.68 1012.73 1012.83 1012.94 1013.04 1013.09 1013.08 1013.02 1012.94 1012.86 1012.81 1012.83 1012.90 1013.03 1013.17 1013.31 1013.42 1013.48
1011.56 1011.43 1011.04 1010.46 1009.81 1009.21 1008.78 1008.58 1008.64 1008.94 1009.41 1009.96 1010.49 1010.94 1011.26 1011.45 1011.54 1011.59 1011.64 1011.74 1011.91 1012.14 1012.40 1012.64 1012.82 1012.91 1012.91 1012.83 1012.71 1012.61 1012.55 1012.56 1012.64 1012.78 1012.93 1013.06 1013.14 1013.14 1013.09 1012.99 1012.90 1012.84 1012.84 1012.89 1013.00 1013.13 1013.25 1013.34 1013.39
1010.75 1010.46 1009.95 1009.32 1008.69 1008.19 1007.92 1007.92 1008.18 1008.67 1009.28 1009.92 1010.51 1010.97 1011.28 1011.45 1011.53 1011.58 1011.65 1011.78 1011.98 1012.22 1012.49 1012.71 1012.86 1012.90 1012.85 1012.72 1012.57 1012.44 1012.38 1012.40 1012.51 1012.67 1012.85 1013.00 1013.09 1013.11 1013.06 1012.97 1012.86 1012.79 1012.77 1012.81 1012.90 1013.02 1013.13 1013.22 1013.26
1009.93 1009.52 1008.94 1008.29 1007.72 1007.33 1007.21 1007.37 1007.80 1008.42 1009.13 1009.82 1010.43 1010.88 1011.17 1011.33 1011.40 1011.45 1011.53 1011.68 1011.90 1012.16 1012.43 1012.65 1012.77 1012.79 1012.71 1012.57 1012.40 1012.26 1012.19 1012.22 1012.33 1012.50 1012.69 1012.85 1012.95 1012.98 1012.93 1012.84 1012.74 1012.67 1012.64 1012.67 1012.75 1012.85 1012.97 1013.05 1013.11
1009.27 1008.80 1008.19 1007.56 1007.05 1006.76 1006.75 1007.03 1007.55 1008.24 1008.99 1009.69 1010.27 1010.69 1010.94 1011.08 1011.14 1011.19 1011.28 1011.45 1011.68 1011.95 1012.22 1012.44 1012.57 1012.59 1012.51 1012.37 1012.21 1012.08 1012.02 1012.04 1012.14 1012.30 1012.47 1012.62 1012.72 1012.75 1012.72 1012.64 1012.55 1012.48 1012.46 1012.49 1012.56 1012.67 1012.78 1012.88 1012.94
1008.93 1008.43 1007.82 1007.22 1006.77 1006.56 1006.61 1006.95 1007.50 1008.18 1008.89 1009.54 1010.06 1010.42 1010.63 1010.74 1010.78 1010.83 1010.94 1011.11 1011.35 1011.62 1011.90 1012.13 1012.27 1012.31 1012.27 1012.16 1012.03 1011.92 1011.86 1011.87 1011.95 1012.07 1012.21 1012.34 1012.42 1012.46 1012.44 1012.39 1012.33 1012.28 1012.27 1012.31 1012.38 1012.49 1012.60 1012.70 1012.78
1008.96 1008.47 1007.88 1007.32 1006.91 1006.73 1006.80 1007.11 1007.61 1008.22 1008.83 1009.38 1009.81 1010.11 1010.27 1010.35 1010.39 1010.44 1010.54 1010.71 1010.94 1011.21 1011.48 1011.72 1011.89 1011.98 1011.99 1011.94 1011.86 1011.78 1011.73 1011.73 1011.76 1011.84 1011.93 1012.02 1012.09 1012.12 1012.13 1012.11 1012.09 1012.09 1012.10 1012.15 1012.23 1012.33 1012.43 1012.53 1012.60
1009.32 1008.85 1008.28 1007.76 1007.37 1007.18 1007.21 1007.45 1007.84 1008.31 1008.79 1009.21 1009.54 1009.76 1009.88 1009.94 1009.98 1010.04 1010.14 1010.30 1010.51 1010.76 1011.02 1011.26 1011.46 1011.60 1011.68 1011.70 1011.69 1011.66 1011.63 1011.61 1011.60 1011.62 1011.65 1011.70 1011.74 1011.78 1011.81 1011.85 1011.88 1011.92 1011.97 1012.04 1012.12 1012.20 1012.29 1012.36 1012.41
1009.88 1009.42 1008.89 1008.39 1008.00 1007.78 1007.74 1007.86 1008.10 1008.40 1008.71 1008.98 1009.20 1009.36 1009.46 1009.53 1009.58 1009.66 1009.76 1009.90 1010.08 1010.29 1010.52 1010.75 1010.97 1011.17 1011.33 1011.45 1011.52 1011.55 1011.55 1011.52 1011.47 1011.43 1011.40 1011.39 1011.40 1011.44 1011.51 1011.59 1011.68 1011.78 1011.87 1011.96 1012.04 1012.10 1012.16 1012.20 1012.22
1010.48 1010.03 1009.53 1009.05 1008.67 1008.41 1008.27 1008.25 1008.31 1008.42 1008.55 1008.68 1008.79 1008.90 1008.99 1009.08 1009.17 1009.27 1009.37 1009.49 1009.63 1009.79 1009.98 1010.20 1010.44 1010.69 1010.93 1011.15 1011.32 1011.43 1011.47 1011.44 1011.37 1011.27 1011.18 1011.12 1011.10 1011.13 1011.22 1011.35 1011.50 1011.65 1011.78 1011.89 1011.97 1012.02 1012.04 1012.05 1012.05
1010.94 1010.52 1010.07 1009.64 1009.26 1008.97 1008.74 1008.57 1008.45 1008.36 1008.30 1008.28 1008.30 1008.36 1008.46 1008.59 1008.72 1008.85 1008.97 1009.07 1009.16 1009.27 1009.41 1009.60 1009.85 1010.15 1010.48 1010.80 1011.07 1011.27 1011.37 1011.37 1011.29 1011.15 1011.00 1010.89 1010.83 1010.85 1010.95 1011.11 1011.31 1011.50 1011.67 1011.80 1011.89 1011.92 1011.93 1011.92 1011.89
1011.16 1010.80 1010.43 1010.08 1009.75 1009.45 1009.14 1008.84 1008.53 1008.25 1008.00 1007.83 1007.75 1007.76 1007.87 1008.03 1008.22 1008.39 1008.51 1008.60 1008.65 1008.69 1008.78 1008.94 1009.19 1009.54 1009.95 1010.38 1010.77 1011.08 1011.26 1011.30 1011.22 1011.05 1010.86 1010.69 1010.60 1010.59 1010.69 1010.87 1011.10 1011.33 1011.53 1011.68 1011.77 1011.80 1011.80 1011.78 1011.75
1011.11 1010.85 1010.62 1010.40 1010.17 1009.89 1009.55 1009.13 1008.65 1008.17 1007.73 1007.39 1007.20 1007.16 1007.25 1007.44 1007.67 1007.87 1008.01 1008.08 1008.09 1008.08 1008.11 1008.24 1008.49 1008.88 1009.37 1009.90 1010.41 1010.82 1011.09 1011.19 1011.13 1010.96 1010.74 1010.52 1010.39 1010.35 1010.43 1010.61 1010.85 1011.10 1011.32 1011.49 1011.59 1011.63 1011.64 1011.62 1011.61
1010.83 1010.74 1010.71 1010.68 1010.60 1010.41 1010.05 1009.55 1008.91 1008.24 1007.59 1007.08 1006.74 1006.62 1006.68 1006.87 1007.12 1007.34 1007.49 1007.54 1007.52 1007.46 1007.45 1007.53 1007.78 1008.20 1008.74 1009.36 1009.98 1010.50 1010.86 1011.03 1011.00 1010.84 1010.60 1010.35 1010.18 1010.11 1010.16 1010.33 1010.56 1010.82 1011.05 1011.22 1011.33 1011.38 1011.40 1011.41 1011.43
1010.42 1010.57 1010.80 1011.03 1011.15 1011.08 1010.76 1010.19 1009.42 1008.55 1007.71 1007.00 1006.50 1006.25 1006.24 1006.40 1006.64 1006.86 1007.01 1007.05 1006.99 1006.89 1006.83 1006.88 1007.11 1007.54 1008.12 1008.81 1009.50 1010.10 1010.54 1010.78 1010.80 1010.65 1010.41 1010.15 1009.94 1009.84 1009.87 1010.01 1010.22 1010.47 1010.69 1010.86 1010.97 1011.03 1011.06 1011.10 1011.17
1010.01 1010.45 1010.98 1011.50 1011.86 1011.94 1011.69 1011.09 1010.21 1009.17 1008.13 1007.22 1006.54 1006.15 1006.03 1006.12 1006.32 1006.53 1006.65 1006.67 1006.58 1006.44 1006.33 1006.34 1006.54 1006.95 1007.54 1008.25 1008.98 1009.64 1010.14 1010.42 1010.48 1010.36 1010.13 1009.87 1009.65 1009.53 1009.53 1009.64 1009.83 1010.05 1010.25 1010.40 1010.50 1010.56 1010.60 1010.65 1010.75
1009.70 1010.44 1011.29 1012.11 1012.72 1012.97 1012.80 1012.20 1011.24 1010.07 1008.85 1007.75 1006.90 1006.35 1006.11 1006.10 1006.24 1006.40 1006.49 1006.47 1006.35 1006.17 1006.02 1005.98 1006.13 1006.49 1007.05 1007.74 1008.46 1009.13 1009.64 1009.95 1010.03 1009.94 1009.73 1009.48 1009.27 1009.14 1009.12 1009.22 1009.38 1009.56 1009.73 1009.86 1009.93 1009.96 1009.99 1010.05 1010.17
1009.55 1010.56 1011.71 1012.79 1013.63 1014.05 1013.97 1013.40 1012.40 1011.13 1009.78 1008.54 1007.53 1006.84 1006.48 1006.37 1006.42 1006.52 1006.57 1006.51 1006.35 1006.12 1005.92 1005.82 1005.90 1006.19 1006.67 1007.29 1007.96 1008.58 1009.07 1009.36 1009.46 1009.38 1009.20 1008.97 1008.78 1008.66 1008.65 1008.73 1008.87 1009.02 1009.15 1009.23 1009.26 1009.26 1009.25 1009.29 1009.40
1009.55 1010.78 1012.15 1013.44 1014.45 1015.01 1015.03 1014.50 1013.51 1012.21 1010.80 1009.47 1008.36 1007.57 1007.10 1006.89 1006.86 1006.89 1006.88 1006.77 1006.57 1006.30 1006.03 1005.87 1005.86 1006.05 1006.43 1006.94 1007.50 1008.03 1008.45 1008.70 1008.78 1008.71 1008.54 1008.35 1008.19 1008.10 1008.10 1008.19 1008.31 1008.43 1008.52 1008.55 1008.53 1008.47 1008.42 1008.41 1008.50
1009.69 1011.04 1012.53 1013.94 1015.06 1015.71 1015.81 1015.35 1014.41 1013.14 1011.74 1010.40 1009.27 1008.42 1007.88 1007.60 1007.49 1007.45 1007.38 1007.22 1006.97 1006.66 1006.34 1006.11 1006.01 1006.09 1006.33 1006.70 1007.12 1007.52 1007.83 1008.01 1008.04 1007.96 1007.81 1007.65 1007.53 1007.48 1007.51 1007.61 1007.72 1007.83 1007.88 1007.86 1007.77 1007.65 1007.54 1007.49 1007.53
1009.91 1011.28 1012.78 1014.19 1015.33 1016.01 1016.17 1015.79 1014.94 1013.78 1012.47 1011.20 1010.11 1009.28 1008.72 1008.39 1008.23 1008.13 1008.00 1007.79 1007.50 1007.14 1006.79 1006.49 1006.31 1006.27 1006.38 1006.60 1006.86 1007.11 1007.28 1007.36 1007.33 1007.21 1007.07 1006.93 1006.85 1006.84 1006.90 1007.02 1007.14 1007.23 1007.25 1007.19 1007.05 1006.87 1006.70 1006.59 1006.58
1010.18 1011.46 1012.85 1014.17 1015.22 1015.88 1016.07 1015.77 1015.05 1014.04 1012.89 1011.77 1010.80 1010.03 1009.50 1009.17 1008.97 1008.82 1008.64 1008.39 1008.06 1007.68 1007.29 1006.95 1006.71 1006.58 1006.57 1006.63 1006.74 1006.83 1006.86 1006.82 1006.70 1006.54 1006.38 1006.26 1006.20 1006.23 1006.32 1006.46 1006.59 1006.67 1006.67 1006.58 1006.41 1006.19 1005.97 1005.81 1005.75
1010.49 1011.59 1012.78 1013.91 1014.82 1015.40 1015.58 1015.35 1014.77 1013.95 1013.02 1012.09 1011.28 1010.64 1010.18 1009.86 1009.65 1009.46 1009.24 1008.95 1008.60 1008.21 1007.81 1007.45 1007.16 1006.97 1006.86 1006.80 1006.76 1006.71 1006.60 1006.44 1006.24 1006.02 1005.83 1005.70 1005.66 1005.70 1005.82 1005.97 1006.11 1006.19 1006.18 1006.07 1005.87 1005.63 1005.38 1005.19 1005.09
Thickness
5824 5821 5816 5805 5789 5776 5778 5797 5811 5813 5815 5824 5826 5819 5807 5799 5789 5782 5808 5815 5812 5808 5805 5803 5803 5801 5800 5799 5797 5796 5795 5793 5792 5791 5790 5789 5787 5786 5784 5782 5780 5779 5777 5776 5774 5773 5773 5772 5771
5827 5823 5813 5798 5779 5765 5780 5805 5810 5818 5825 5830 5827 5820 5810 5804 5810 5808 5811 5813 5813 5809 5806 5804 5803 5801 5800 5799 5797 5796 5795 5793 5792 5791 5789 5788 5787 5785 5784 5781 5779 5777 5776 5775 5773 5773 5772 5771 5769
5829 5826 5806 5790 5778 5773 5788 5810 5817 5827 5835 5832 5822 5821 5813 5806 5812 5811 5815 5815 5812 5809 5806 5805 5803 5801 5800 5799 5797 5796 5794 5793 5791 5790 5788 5787 5786 5784 5783 5780 5778 5777 5775 5774 5773 5772 5771 5769 5768
5827 5815 5802 5786 5782 5799 5810 5819 5827 5826 5829 5831 5823 5812 5815 5822 5820 5819 5819 5816 5811 5808 5806 5804 5802 5801 5799 5798 5797 5795 5793 5792 5791 5789 5787 5786 5784 5783 5781 5779 5777 5776 5775 5773 5772 5771 5770 5769 5768
5826 5808 5790 5782 5794 5814 5827 5833 5834 5826 5823 5824 5821 5806 5806 5822 5827 5823 5819 5816 5811 5807 5806 5804 5802 5801 5799 5797 5796 5794 5792 5791 5789 5788 5786 5784 5783 5782 5780 5779 5777 5775 5774 5773 5772 5770 5769 5768 5767
5814 5803 5781 5779 5800 5820 5832 5839 5836 5826 5822 5822 5818 5806 5805 5821 5822 5820 5819 5815 5812 5808 5805 5803 5802 5800 5798 5797 5795 5793 5792 5790 5788 5787 5786 5783 5782 5781 5779 5778 5776 5775 5774 5772 5771 5770 5768 5767 5766
5809 5797 5787 5793 5802 5813 5830 5842 5835 5827 5822 5823 5824 5806 5805 5816 5822 5823 5819 5816 5812 5808 5805 5802 5800 5799 5798 5796 5794 5792 5791 5789 5788 5788 5786 5783 5782 5780 5779 5777 5775 5774 5773 5772 5771 5769 5767 5766 5765
5825 5804 5795 5799 5804 5813 5837 5843 5842 5835 5828 5836 5831 5808 5802 5815 5824 5823 5818 5813 5809 5806 5804 5802 5800 5798 5797 5795 5794 5792 5790 5789 5788 5787 5786 5783 5781 5779 5778 5776 5775 5774 5773 5771 5770 5769 5767 5766 5765
5835 5800 5791 5805 5812 5820 5839 5838 5841 5846 5837 5833 5833 5826 5824 5826 5824 5817 5811 5807 5804 5803 5802 5801 5799 5798 5796 5795 5793 5792 5791 5789 5787 5785 5784 5782 5780 5779 5778 5777 5775 5774 5772 5770 5769 5768 5767 5766 5764
5825 5799 5810 5831 5835 5833 5839 5840 5840 5834 5826 5823 5824 5827 5829 5826 5820 5812 5806 5802 5801 5800 5801 5801 5799 5798 5796 5795 5793 5791 5790 5789 5787 5785 5783 5782 5780 5778 5778 5777 5775 5774 5772 5770 5769 5767 5766 5765 5764
5830 5818 5833 5844 5850 5846 5841 5841 5845 5831 5817 5822 5820 5821 5823 5821 5816 5812 5808 5806 5804 5804 5803 5802 5800 5798 5796 5795 5793 5791 5789 5788 5786 5785 5783 5781 5780 5778 5777 5776 5774 5773 5771 5770 5768 5766 5765 5764 5763
5835 5840 5846 5850 5856 5850 5845 5844 5840 5836 5832 5838 5835 5831 5826 5820 5816 5813 5810 5808 5807 5805 5805 5804 5802 5799 5797 5796 5794 5791 5789 5787 5786 5785 5783 5781 5779 5778 5777 5775 5774 5772 5771 5769 5767 5766 5765 5764 5763
5838 5842 5852 5857 5857 5854 5851 5844 5840 5837 5844 5843 5838 5832 5825 5821 5819 5818 5816 5813 5810 5807 5806 5805 5804 5801 5798 5796 5794 5792 5790 5788 5787 5786 5784 5783 5780 5778 5777 5775 5774 5772 5771 5769 5767 5766 5765 5764 5763
5844 5847 5851 5855 5855 5855 5846 5842 5839 5836 5844 5838 5833 5828 5826 5822 5820 5817 5815 5812 5811 5810 5808 5807 5805 5802 5800 5797 5795 5793 5791 5789 5788 5787 5785 5784 5782 5780 5777 5775 5774 5772 5771 5769 5767 5766 5765 5764 5763
5850 5839 5842 5849 5851 5850 5844 5826 5832 5840 5841 5833 5830 5828 5826 5823 5822 5819 5818 5815 5813 5812 5810 5808 5806 5804 5801 5798 5796 5795 5793 5791 5789 5787 5786 5785 5783 5781 5779 5776 5774 5773 5772 5770 5768 5766 5765 5764 5764
5837 5824 5815 5837 5848 5848 5832 5807 5831 5842 5837 5828 5828 5828 5826 5823 5823 5822 5821 5818 5816 5813 5810 5809 5808 5804 5802 5799 5797 5796 5794 5791 5789 5788 5786 5785 5783 5782 5779 5777 5775 5775 5773 5771 5768 5766 5764 5763 5762
5812 5803 5808 5826 5846 5844 5829 5814 5832 5841 5836 5829 5828 5828 5826 5822 5822 5823 5823 5821 5818 5815 5812 5808 5807 5804 5802 5800 5798 5796 5794 5791 5789 5787 5786 5785 5784 5782 5780 5777 5776 5774 5772 5771 5769 5767 5764 5761 5761
5798 5803 5809 5815 5836 5838 5825 5820 5831 5837 5835 5830 5829 5827 5825 5823 5823 5826 5825 5823 5820 5817 5813 5809 5806 5803 5801 5799 5796 5794 5792 5790 5789 5787 5786 5785 5784 5782 5780 5778 5776 5774 5771 5770 5768 5766 5764 5762 5760
5818 5812 5810 5822 5841 5831 5822 5820 5828 5835 5832 5828 5825 5825 5825 5825 5828 5828 5826 5824 5820 5816 5812 5808 5805 5802 5800 5796 5792 5789 5787 5788 5787 5787 5786 5785 5784 5782 5780 5778 5775 5773 5771 5769 5768 5765 5762 5760 5760
5821 5811 5812 5824 5839 5831 5820 5819 5829 5833 5832 5833 5831 5828 5827 5825 5825 5824 5823 5822 5819 5815 5811 5808 5805 5803 5800 5798 5794 5791 5789 5787 5786 5786 5785 5784 5783 5782 5780 5778 5775 5773 5771 5768 5767 5764 5760 5759 5759
5818 5813 5815 5817 5827 5828 5818 5807 5817 5827 5833 5832 5833 5831 5829 5827 5824 5823 5821 5819 5818 5814 5811 5810 5805 5803 5801 5798 5795 5791 5787 5785 5782 5782 5782 5782 5782 5781 5780 5778 5776 5774 5771 5768 5767 5765 5762 5757 5758
5810 5831 5831 5826 5808 5794 5805 5775 5802 5815 5818 5823 5826 5827 5827 5827 5825 5823 5820 5818 5817 5815 5813 5810 5806 5803 5800 5798 5793 5788 5783 5779 5779 5780 5780 5781 5781 5781 5779 5778 5776 5774 5772 5769 5768 5767 5764 5760 5755
5826 5840 5833 5825 5808 5792 5795 5778 5788 5808 5807 5817 5824 5827 5829 5829 5827 5824 5823 5820 5817 5815 5812 5808 5804 5801 5799 5796 5793 5788 5783 5781 5781 5780 5779 5778 5779 5780 5779 5777 5776 5773 5771 5769 5767 5766 5764 5761 5757
5840 5830 5819 5805 5788 5768 5783 5776 5777 5797 5810 5817 5825 5829 5831 5830 5828 5826 5824 5820 5815 5813 5810 5806 5802 5798 5797 5795 5792 5788 5783 5780 5778 5777 5775 5775 5776 5777 5777 5776 5774 5773 5771 5769 5767 5765 5764 5761 5758
5828 5794 5768 5763 5753 5757 5784 5779 5783 5814 5826 5827 5827 5828 5831 5831 5828 5824 5819 5816 5813 5810 5808 5805 5800 5795 5794 5792 5790 5787 5784 5781 5778 5776 5774 5773 5772 5773 5775 5775 5773 5771 5770 5769 5767 5764 5762 5760 5757
5816 5796 5762 5749 5745 5756 5776 5774 5795 5825 5832 5834 5833 5831 5830 5827 5824 5821 5818 5815 5813 5810 5807 5804 5798 5794 5791 5789 5787 5785 5783 5780 5778 5777 5775 5773 5772 5773 5774 5773 5772 5771 5769 5768 5765 5763 5761 5759 5756
5810 5798 5795 5768 5762 5753 5763 5782 5802 5823 5822 5824 5825 5825 5823 5822 5822 5820 5818 5814 5811 5809 5806 5803 5797 5792 5790 5787 5785 5783 5781 5779 5777 5776 5775 5774 5773 5773 5772 5771 5770 5769 5767 5765 5763 5760 5758 5757 5754
5821 5808 5782 5765 5747 5739 5754 5768 5774 5795 5804 5811 5814 5816 5819 5820 5819 5817 5815 5813 5811 5808 5804 5801 5796 5791 5787 5785 5783 5782 5780 5779 5777 5776 5774 5772 5772 5771 5770 5768 5767 5766 5764 5762 5760 5758 5756 5753 5751
5804 5795 5781 5762 5757 5740 5737 5757 5801 5799 5804 5805 5808 5812 5814 5813 5814 5813 5812 5812 5809 5806 5802 5797 5792 5788 5784 5783 5781 5779 5777 5776 5775 5773 5771 5770 5770 5769 5767 5765 5764 5762 5761 5759 5757 5755 5753 5750 5748
5808 5794 5779 5758 5752 5749 5742 5758 5807 5806 5808 5807 5807 5809 5810 5811 5810 5809 5808 5807 5804 5801 5798 5793 5790 5786 5783 5782 5779 5776 5775 5773 5771 5770 5769 5768 5767 5766 5764 5762 5760 5759 5758 5756 5754 5751 5749 5747 5744